sat.trackr.live / text

‹ back to catalog

SHIJIAN-23 (SJ-23)

NORAD 55131 · 2023-002A

PAYLOAD ACTIVE UNKNOWN

§ Identity

Operator
Country
PRC
Launch date
2023-01-08
Launch site
WSC
Launch vehicle
Mass (kg)
RCS (m²)

Purposes: comms

External: N2YO · Heavens-Above · Gunter

§ Orbital elements

Epoch: 2026-09-19T19:30:58.917024Z

Period
1,439.64 min
Inclination
3.9538°
Eccentricity
0.0002903
Mean motion
1.00024760 rev/d
Perigee alt
35,843.7 km
Apogee alt
35,868.2 km
Semi-major
42,234.1 km
B*
0.0000e+0
RAAN
77.0670°
Arg perigee
230.3487°
Mean anomaly
58.7227°
Rev number
1,345

§ Raw data

SHIJIAN-23 (SJ-23)1 55131U 23002A   26262.81318191 -.00000034  00000+0  00000+0 0  99982 55131   3.9538  77.0670 0002903 230.3487  58.7227  1.00024760 13457

JSON: /api/v1/satellites/55131 · /tle

For live sub-satellite position, see the globe view (requires WebGL).

§ Visibility from observer

Set your observer location to see the next 7 days of passes ≥ 10°. The values pass through the URL so the page stays shareable.

No JS? Fill the form by hand. The geolocation button needs JavaScript.